Tiree, United Kingdom

4:56 PM BST on September 26, 2016 (GMT +0100)
Tiree

Weather History for EGPU - November, 2012

Change the Weather History Date:

Monday, November 26, 2012

  Actual Average Record
Temperature  
Mean Temperature 44 °F -  
Max Temperature 47 °F 47 °F 55 °F (2011)
Min Temperature 42 °F 43 °F 30 °F (1996)
Degree Days  
Heating Degree Days 20    
Moisture  
Dew Point 37 °F    
Average Humidity 73    
Maximum Humidity 87    
Minimum Humidity 57    
Precipitation  
Precipitation 0.16 in - - ()
Sea Level Pressure  
Sea Level Pressure 29.84 in    
Wind  
Wind Speed 19 mph ()    
Max Wind Speed 30 mph    
Max Gust Speed -    
Visibility 7.5 miles    
Events Rain    
Averages and records for this station are not official NWS values.
T = Trace of Precipitation, MM = Missing Value Source: Averaged Metar Reports

Daily Weather History Graph

Daily Weather History Graph

Search for Another Location

Airport or City:

Trip Planner

Search our weather history database for the weather conditions in past years. The results will help you decide how hot, cold, wet, or windy it might be!

Date:

Astronomy

Nov. 26, 2012 Rise Set
Actual Time 8:29 AM GMT 4:00 PM GMT
Civil Twilight 7:43 AM GMT 4:45 PM GMT
Nautical Twilight 6:55 AM GMT 5:33 PM GMT
Astronomical Twilight 6:10 AM GMT 6:18 PM GMT
Moon 2:56 PM GMT 6:11 AM GMT
Length of Visible Light 9h 01m
Length of Day
7h 31m
Waxing Gibbous, 96% of the Moon is Illuminated
Nov 26
Waxing Gibbous
Nov 28
Full
Dec 6
Last Quarter
Dec 13
New
Dec 20
First Quarter

Hourly Weather History & Observations

Time (GMT) Temp. Windchill Dew Point Humidity Pressure Visibility Wind Dir Wind Speed Gust Speed Precip Events Conditions
12:20 AM 44.6 °F 37.8 °F 37.4 °F 76% 29.68 in 6.2 mi NNE 15.0 mph - N/A   Scattered Clouds
12:50 AM 44.6 °F 38.1 °F 37.4 °F 76% 29.71 in 6.2 mi NNE 13.8 mph - N/A   Scattered Clouds
1:20 AM 44.6 °F 37.4 °F 37.4 °F 76% 29.71 in 6.2 mi NNE 16.1 mph - N/A   Partly Cloudy
1:50 AM 44.6 °F 36.9 °F 37.4 °F 76% 29.68 in 6.2 mi NNE 18.4 mph - N/A   Partly Cloudy
2:20 AM 44.6 °F 36.9 °F 37.4 °F 76% 29.71 in 6.2 mi NNE 18.4 mph - N/A   Partly Cloudy
2:50 AM 45 °F - 38 °F 68% 29.73 in 19 mi NNE 18.4 mph - -   Scattered Clouds
2:50 AM 44.6 °F 36.9 °F 37.4 °F 76% 29.71 in 6.2 mi NNE 18.4 mph - N/A   Partly Cloudy
3:20 AM 44.6 °F 37.2 °F 37.4 °F 76% 29.71 in 6.2 mi NNE 17.3 mph - N/A   Partly Cloudy
3:50 AM 44.6 °F 36.6 °F 37.4 °F 76% 29.71 in 6.2 mi NNE 19.6 mph - N/A   Partly Cloudy
4:20 AM 44.6 °F 37.2 °F 37.4 °F 76% 29.71 in 6.2 mi NNE 17.3 mph - N/A   Partly Cloudy
4:50 AM 44.6 °F 36.6 °F 37.4 °F 76% 29.74 in 6.2 mi NNE 19.6 mph - N/A   Partly Cloudy
5:20 AM 46.4 °F 39.0 °F 39.2 °F 76% 29.74 in 6.2 mi NNE 19.6 mph - N/A   Partly Cloudy
5:50 AM 45 °F - 40 °F 77% 29.76 in 14 mi North 18.4 mph - - Rain Rain
5:50 AM 44.6 °F 36.9 °F 41.0 °F 87% 29.74 in 6.2 mi North 18.4 mph - N/A   Scattered Clouds
6:20 AM 46.4 °F 39.0 °F 39.2 °F 76% 29.74 in 6.2 mi North 19.6 mph - N/A   Partly Cloudy
6:50 AM 44.6 °F 38.1 °F 39.2 °F 81% 29.77 in 6.2 mi NNE 13.8 mph - N/A Rain Light Rain Showers
7:20 AM 44.6 °F 36.6 °F 41.0 °F 87% 29.77 in 6.2 mi North 19.6 mph - N/A Rain Light Rain Showers
7:50 AM 44.6 °F 36.9 °F 41.0 °F 87% 29.77 in 6.2 mi North 18.4 mph - N/A   Mostly Cloudy
8:20 AM 42.8 °F 34.5 °F 39.2 °F 87% 29.80 in 5.0 mi North 18.4 mph - N/A Rain Rain Showers
8:50 AM 44 °F - 40 °F 79% 29.81 in 18 mi NNE 18.4 mph - - Rain Rain
8:50 AM 44.6 °F 36.9 °F 39.2 °F 81% 29.80 in 6.2 mi NNE 18.4 mph - N/A Rain Rain Showers
9:20 AM 44.6 °F 36.6 °F 39.2 °F 81% 29.80 in 6.2 mi NNE 19.6 mph - N/A   Mostly Cloudy
9:50 AM 46.4 °F 38.5 °F 41.0 °F 81% 29.83 in 6.2 mi North 21.9 mph - N/A   Scattered Clouds
10:20 AM 44.6 °F 36.1 °F 41.0 °F 87% 29.83 in 3.1 mi North 21.9 mph - N/A Rain Rain Showers
10:50 AM 44.6 °F 36.4 °F 41.0 °F 87% 29.83 in 6.2 mi NNE 20.7 mph - N/A   Scattered Clouds
11:20 AM 46.4 °F 38.5 °F 39.2 °F 76% 29.83 in 6.2 mi NNE 21.9 mph - N/A   Mostly Cloudy
11:50 AM 46 °F - 39 °F 69% 29.86 in 11 mi NNE 24.2 mph - - Rain Rain
11:50 AM 46.4 °F 38.1 °F 39.2 °F 76% 29.83 in 6.2 mi NNE 24.2 mph - N/A   Mostly Cloudy
12:20 PM 46.4 °F 37.9 °F 39.2 °F 76% 29.83 in 6.2 mi NNE 25.3 mph - N/A   Scattered Clouds
12:50 PM 46.4 °F 37.7 °F 37.4 °F 71% 29.86 in 6.2 mi North 26.5 mph - N/A   Partly Cloudy
1:20 PM 46.4 °F 37.7 °F 37.4 °F 71% 29.86 in 6.2 mi Variable 26.5 mph - N/A   Partly Cloudy
1:50 PM 46.4 °F 37.7 °F 37.4 °F 71% 29.86 in 6.2 mi North 26.5 mph - N/A   Scattered Clouds
2:20 PM 46.4 °F 38.1 °F 37.4 °F 71% 29.86 in 6.2 mi North 24.2 mph - N/A   Scattered Clouds
2:50 PM 46 °F - 38 °F 65% 29.88 in 13 mi North 25.3 mph - -   Scattered Clouds
2:50 PM 46.4 °F 37.9 °F 37.4 °F 71% 29.86 in 6.2 mi North 25.3 mph - N/A Rain Light Rain Showers
3:20 PM 46.4 °F 37.7 °F 37.4 °F 71% 29.86 in 6.2 mi North 26.5 mph - N/A   Unknown
3:50 PM 44.6 °F 35.5 °F 37.4 °F 76% 29.89 in 6.2 mi North 25.3 mph - N/A   Unknown
4:20 PM 46.4 °F 37.7 °F 37.4 °F 71% 29.89 in 6.2 mi North 26.5 mph - N/A   Unknown
4:50 PM 46.4 °F 37.4 °F 37.4 °F 71% 29.89 in 6.2 mi North 28.8 mph - N/A   Partly Cloudy
5:20 PM 44.6 °F 34.9 °F 35.6 °F 71% 29.89 in 6.2 mi North 28.8 mph - N/A   Scattered Clouds
5:50 PM 45 °F - 36 °F 62% 29.92 in 15 mi North 29.9 mph - - Rain Rain
5:50 PM 44.6 °F 34.7 °F 35.6 °F 71% 29.92 in 6.2 mi North 29.9 mph - N/A   Partly Cloudy
6:20 PM 44.6 °F 34.9 °F 35.6 °F 71% 29.92 in 6.2 mi North 28.8 mph - N/A   Partly Cloudy
6:50 PM 44.6 °F 35.3 °F 35.6 °F 71% 29.92 in 6.2 mi North 26.5 mph - N/A   Scattered Clouds
7:20 PM 44.6 °F 35.1 °F 33.8 °F 66% 29.92 in 6.2 mi North 27.6 mph - N/A   Mostly Cloudy
7:50 PM 44.6 °F 34.9 °F 32.0 °F 61% 29.92 in 6.2 mi North 28.8 mph - N/A   Scattered Clouds
8:20 PM 44.6 °F 35.1 °F 33.8 °F 66% 29.95 in 6.2 mi North 27.6 mph - N/A   Mostly Cloudy
8:50 PM 44 °F - 34 °F 57% 29.95 in 18 mi North 29.9 mph - -   Scattered Clouds
8:50 PM 44.6 °F 34.7 °F 33.8 °F 66% 29.95 in 6.2 mi North 29.9 mph - N/A   Scattered Clouds
9:20 PM 42.8 °F 32.7 °F 33.8 °F 70% 29.95 in 6.2 mi North 27.6 mph - N/A   Mostly Cloudy
9:50 PM 42.8 °F 32.7 °F 32.0 °F 66% 29.95 in 6.2 mi North 27.6 mph - N/A   Mostly Cloudy
10:20 PM 42.8 °F 32.7 °F 32.0 °F 66% 29.95 in 6.2 mi NNE 27.6 mph - N/A   Scattered Clouds
10:50 PM 42.8 °F 32.9 °F 32.0 °F 66% 29.95 in 6.2 mi North 26.5 mph - N/A   Partly Cloudy
11:20 PM 42.8 °F 32.9 °F 32.0 °F 66% 29.95 in 6.2 mi NNE 26.5 mph - N/A   Partly Cloudy
11:50 PM 43 °F - 33 °F 58% 29.98 in 16 mi NNE 28.8 mph - -   Partly Cloudy
11:50 PM 42.8 °F 32.5 °F 33.8 °F 70% 29.95 in 6.2 mi NNE 28.8 mph - N/A   Scattered Clouds